• In Czech Republic
  • List of Countries
  • For 7 days
  • Water Temperature
  • Satellite Maps
  • Weather Map
  • Weather Widgets
  • user-avatar
    Login

    Hourly Weather Konstantyna

    Today, 20 September, Thursday

    Time Temperature Precipitation Wind Pressure Humidity
    00:00 +23°C° 0 mm 1 mps 713 mmHg 75%
    01:00 +23°C° 0.4 mm 1 mps 712 mmHg 76%
    02:00 +23°C° 0.4 mm 1 mps 712 mmHg 76%
    03:00 +23°C° 0.4 mm 1 mps 712 mmHg 77%
    04:00 +22°C° 0.3 mm 1 mps 712 mmHg 77%
    05:00 +22°C° 0.3 mm 1 mps 712 mmHg 78%
    06:00 +22°C° 0 mm 1 mps 712 mmHg 77%
    07:00 +23°C° 0 mm 1 mps 712 mmHg 71%
    08:00 +24°C° 0 mm 2 mps 712 mmHg 64%
    09:00 +26°C° 0 mm 2 mps 712 mmHg 58%
    10:00 +26°C° 0.3 mm 2 mps 712 mmHg 55%
    11:00 +27°C° 0.3 mm 3 mps 712 mmHg 52%
    12:00 +28°C° 0.3 mm 3 mps 712 mmHg 49%
    13:00 +28°C° 0.5 mm 4 mps 712 mmHg 50%
    14:00 +28°C° 0.5 mm 4 mps 712 mmHg 51%
    15:00 +27°C° 0.5 mm 4 mps 711 mmHg 52%
    16:00 +26°C° 0.1 mm 4 mps 711 mmHg 57%
    17:00 +25°C° 0.1 mm 4 mps 711 mmHg 62%
    18:00 +24°C° 0.1 mm 3 mps 711 mmHg 67%
    19:00 +24°C° 0.6 mm 3 mps 711 mmHg 71%
    20:00 +23°C° 0.6 mm 2 mps 711 mmHg 74%
    21:00 +23°C° 0.6 mm 2 mps 711 mmHg 78%
    22:00 +21°C° 0.1 mm 2 mps 711 mmHg 79%
    23:00 +21°C° 0.1 mm 2 mps 711 mmHg 80%

    Tomorrow, 21 September, Friday

    Time Temperature Precipitation Wind Pressure Humidity
    00:00 +22°C° 0.1 mm 1 mps 711 mmHg 82%
    01:00 +21°C° 0 mm 1 mps 711 mmHg 83%
    02:00 +21°C° 0 mm 1 mps 711 mmHg 84%
    03:00 +21°C° 0 mm 1 mps 710 mmHg 84%
    04:00 +21°C° 0 mm 1 mps 710 mmHg 85%
    05:00 +21°C° 0 mm 1 mps 711 mmHg 85%
    06:00 +21°C° 0 mm 1 mps 711 mmHg 85%
    07:00 +22°C° 0 mm 1 mps 711 mmHg 77%
    08:00 +23°C° 0 mm 2 mps 712 mmHg 68%
    09:00 +24°C° 0 mm 2 mps 712 mmHg 60%
    10:00 +25°C° 0 mm 3 mps 712 mmHg 55%
    11:00 +27°C° 0 mm 3 mps 712 mmHg 49%
    12:00 +28°C° 0 mm 3 mps 712 mmHg 44%
    13:00 +28°C° 0.1 mm 4 mps 712 mmHg 45%
    14:00 +28°C° 0.1 mm 4 mps 712 mmHg 46%
    15:00 +27°C° 0.1 mm 5 mps 712 mmHg 47%
    16:00 +26°C° 0 mm 4 mps 712 mmHg 53%
    17:00 +25°C° 0 mm 4 mps 712 mmHg 58%
    18:00 +24°C° 0 mm 3 mps 712 mmHg 64%
    19:00 +24°C° 0.1 mm 3 mps 712 mmHg 67%
    20:00 +23°C° 0.1 mm 2 mps 713 mmHg 70%
    21:00 +23°C° 0.1 mm 2 mps 713 mmHg 73%
    22:00 +21°C° 0 mm 2 mps 713 mmHg 74%
    23:00 +21°C° 0 mm 2 mps 713 mmHg 75%

    Day after tomorrow, 22 September, Saturday

    Time Temperature Precipitation Wind Pressure Humidity
    00:00 +22°C° 0 mm 1 mps 713 mmHg 76%
    01:00 +22°C° 0 mm 1 mps 713 mmHg 77%
    02:00 +21°C° 0 mm 1 mps 713 mmHg 78%
    03:00 +21°C° 0 mm 1 mps 713 mmHg 79%
    04:00 +21°C° 0 mm 1 mps 713 mmHg 79%
    05:00 +21°C° 0 mm 1 mps 713 mmHg 80%
    06:00 +21°C° 0 mm 1 mps 714 mmHg 80%
    07:00 +21°C° 0 mm 2 mps 714 mmHg 73%
    08:00 +24°C° 0 mm 2 mps 715 mmHg 67%
    09:00 +25°C° 0 mm 2 mps 715 mmHg 60%
    10:00 +26°C° 0 mm 3 mps 715 mmHg 54%
    11:00 +27°C° 0 mm 3 mps 715 mmHg 49%
    12:00 +28°C° 0 mm 3 mps 715 mmHg 43%
    13:00 +28°C° 0 mm 4 mps 715 mmHg 43%
    14:00 +29°C° 0 mm 4 mps 715 mmHg 42%
    15:00 +29°C° 0 mm 5 mps 715 mmHg 42%
    16:00 +28°C° 0 mm 4 mps 715 mmHg 49%
    17:00 +26°C° 0 mm 3 mps 715 mmHg 56%
    18:00 +25°C° 0 mm 3 mps 715 mmHg 62%
    19:00 +24°C° 0 mm 2 mps 715 mmHg 66%
    20:00 +24°C° 0 mm 1 mps 716 mmHg 70%
    21:00 +23°C° 0 mm 1 mps 716 mmHg 73%
    22:00 +23°C° 0 mm 1 mps 716 mmHg 74%
    23:00 +21°C° 0 mm 0 mps 716 mmHg 76%

    23 September, Sunday

    Time Temperature Precipitation Wind Pressure Humidity
    00:00 +20°C° 0 mm 0 mps 716 mmHg 77%
    01:00 +20°C° 0 mm 0 mps 715 mmHg 76%
    02:00 +20°C° 0 mm 0 mps 715 mmHg 75%
    03:00 +20°C° 0 mm 0 mps 715 mmHg 74%
    04:00 +20°C° 0 mm 0 mps 715 mmHg 72%
    05:00 +20°C° 0 mm 0 mps 715 mmHg 70%
    06:00 +22°C° 0 mm 1 mps 715 mmHg 68%
    07:00 +23°C° 0 mm 1 mps 715 mmHg 60%
    08:00 +25°C° 0 mm 1 mps 716 mmHg 51%
    09:00 +27°C° 0 mm 1 mps 716 mmHg 43%
    10:00 +28°C° 0 mm 1 mps 716 mmHg 40%
    11:00 +28°C° 0 mm 1 mps 716 mmHg 38%
    12:00 +29°C° 0 mm 2 mps 716 mmHg 35%
    13:00 +30°C° 0 mm 2 mps 716 mmHg 35%
    14:00 +30°C° 0 mm 2 mps 715 mmHg 36%
    15:00 +30°C° 0 mm 3 mps 715 mmHg 36%
    16:00 +29°C° 0 mm 2 mps 715 mmHg 41%
    17:00 +28°C° 0 mm 2 mps 715 mmHg 46%
    18:00 +27°C° 0 mm 2 mps 715 mmHg 51%
    19:00 +26°C° 0 mm 2 mps 715 mmHg 55%
    20:00 +25°C° 0 mm 1 mps 715 mmHg 58%
    21:00 +25°C° 0 mm 1 mps 715 mmHg 62%
    22:00 +24°C° 0 mm 1 mps 715 mmHg 64%
    23:00 +22°C° 0 mm 0 mps 715 mmHg 65%

    24 September, Monday

    Time Temperature Precipitation Wind Pressure Humidity
    00:00 +22°C° 0 mm 0 mps 714 mmHg 66%
    01:00 +21°C° 0 mm 0 mps 714 mmHg 67%
    02:00 +21°C° 0 mm 0 mps 714 mmHg 67%
    03:00 +21°C° 0 mm 0 mps 713 mmHg 68%
    04:00 +21°C° 0 mm 0 mps 713 mmHg 67%
    05:00 +21°C° 0 mm 0 mps 713 mmHg 67%
    06:00 +21°C° 0 mm 0 mps 713 mmHg 66%
    07:00 +24°C° 0 mm 1 mps 714 mmHg 58%
    08:00 +26°C° 0 mm 1 mps 714 mmHg 50%
    09:00 +27°C° 0 mm 2 mps 715 mmHg 42%
    10:00 +28°C° 0 mm 2 mps 715 mmHg 39%
    11:00 +29°C° 0 mm 3 mps 715 mmHg 35%
    12:00 +30°C° 0 mm 3 mps 714 mmHg 32%
    13:00 +30°C° 0 mm 3 mps 714 mmHg 33%
    14:00 +30°C° 0 mm 3 mps 714 mmHg 34%
    15:00 +30°C° 0 mm 3 mps 714 mmHg 35%
    16:00 +28°C° 0 mm 3 mps 714 mmHg 41%
    17:00 +27°C° 0 mm 3 mps 714 mmHg 48%
    18:00 +26°C° 0 mm 3 mps 714 mmHg 54%
    19:00 +25°C° 0 mm 2 mps 714 mmHg 60%
    20:00 +24°C° 0 mm 2 mps 714 mmHg 66%
    21:00 +23°C° 0 mm 1 mps 714 mmHg 72%
    22:00 +23°C° 0 mm 1 mps 714 mmHg 75%
    23:00 +22°C° 0 mm 1 mps 714 mmHg 78%

    25 September, Tuesday

    Time Temperature Precipitation Wind Pressure Humidity
    00:00 +22°C° 0 mm 1 mps 714 mmHg 82%
    01:00 +22°C° 0 mm 1 mps 714 mmHg 83%
    02:00 +21°C° 0 mm 1 mps 714 mmHg 85%
    03:00 +21°C° 0 mm 1 mps 713 mmHg 87%
    04:00 +21°C° 0 mm 1 mps 714 mmHg 87%
    05:00 +21°C° 0 mm 1 mps 714 mmHg 87%
    06:00 +21°C° 0 mm 1 mps 714 mmHg 87%
    07:00 +22°C° 0 mm 1 mps 714 mmHg 80%
    08:00 +23°C° 0 mm 1 mps 714 mmHg 72%
    09:00 +24°C° 0 mm 2 mps 715 mmHg 65%
    10:00 +25°C° 0 mm 2 mps 715 mmHg 59%
    11:00 +26°C° 0 mm 2 mps 715 mmHg 52%
    12:00 +28°C° 0 mm 3 mps 715 mmHg 46%
    13:00 +28°C° 0 mm 3 mps 714 mmHg 46%
    14:00 +28°C° 0 mm 4 mps 714 mmHg 46%
    15:00 +28°C° 0 mm 4 mps 714 mmHg 46%
    16:00 +26°C° 0 mm 4 mps 714 mmHg 52%
    17:00 +25°C° 0 mm 4 mps 714 mmHg 57%
    18:00 +24°C° 0 mm 3 mps 714 mmHg 63%
    19:00 +22°C° 0 mm 3 mps 714 mmHg 66%
    20:00 +21°C° 0 mm 2 mps 715 mmHg 70%
    21:00 +21°C° 0 mm 2 mps 715 mmHg 73%
    22:00 +21°C° 0 mm 1 mps 715 mmHg 75%
    23:00 +21°C° 0 mm 1 mps 715 mmHg 76%
    Show more